Location: Newark
(34.9471°N, 136.1778°E)
Time: 13:46:00
(UTC+00:00)

AO-7 - Visible Passes

Search period start: 22 February 2020 00:00
Search period end: 03 March 2020 00:00
Orbit: 1440 x 1458 km, 101.8° (Epoch: 21 February)

Date Brightness Start Highest point End Pass type
(mag) Time Alt. Az. Time Alt. Az. Time Alt. Az.
22 Feb ? 16:53:39 10° ENE 16:57:12 13° E 16:58:00 13° E visible
22 Feb ? 18:42:30 10° NNE 18:50:54 83° ESE 18:52:56 57° S visible
22 Feb ? 20:37:03 10° NNW 20:42:37 20° NW 20:47:51 11° W visible
23 Feb ? 17:43:21 10° NE 17:50:45 34° E 17:52:04 33° ESE visible
23 Feb ? 19:35:41 10° N 19:43:32 48° WNW 19:46:59 32° WSW visible
24 Feb ? 16:47:57 10° ENE 16:50:04 11° E 16:51:12 11° E visible
24 Feb ? 18:35:31 10° NNE 18:43:53 76° ESE 18:46:08 53° S visible
24 Feb ? 20:29:46 10° N 20:35:44 22° WNW 20:41:04 12° W visible
25 Feb ? 17:36:34 10° NE 17:43:41 31° E 17:45:17 29° ESE visible
25 Feb ? 19:28:36 10° N 19:36:35 53° WNW 19:40:12 33° WSW visible
26 Feb ? 18:28:32 10° NNE 18:36:52 69° ESE 18:39:21 48° SSE visible
26 Feb ? 20:22:32 10° N 20:28:51 25° WNW 20:34:17 13° WSW visible
27 Feb ? 17:29:48 10° NE 17:36:36 27° E 17:38:30 25° ESE visible
27 Feb ? 19:21:32 10° N 19:29:38 58° WNW 19:33:26 33° SW visible
28 Feb ? 18:21:35 10° NNE 18:29:50 62° ESE 18:32:34 44° SSE visible
28 Feb ? 20:15:19 10° N 20:21:57 27° WNW 20:27:30 14° WSW visible
29 Feb ? 17:23:05 10° NE 17:29:31 24° E 17:31:43 22° ESE visible
29 Feb ? 19:14:27 10° N 19:22:40 64° WNW 19:26:38 34° SW visible
01 Mar ? 18:14:39 10° NNE 18:22:49 56° ESE 18:25:47 39° SSE visible
01 Mar ? 20:08:08 10° N 20:15:03 30° WNW 20:20:43 14° WSW visible
02 Mar ? 17:16:26 10° NE 17:22:25 21° E 17:24:56 19° ESE visible
02 Mar ? 19:07:25 10° NNE 19:15:41 71° WNW 19:19:51 33° SW visible
